Regional Weather Roundup
Issued by NWS Columbia, SC

Home | Current Version | Previous Version | Text Only | Print | Product List | Glossary On
Versions: 1 2 3 4 5 6 7 8 9 10 11 12 13 14 15 16 17 18 19 20 21 22 23 24 25 26 27 28 29 30 31 32 33 34 35 36 37 38 39 40 41 42 43 44 45 46 47 48 49 50
000
ASUS42 KCAE 061910
RWRCAE
REGIONAL WEATHER ROUNDUP
NATIONAL WEATHER SERVICE COLUMBIA SC
200 PM EST TUE DEC 06 2016

NOTE: "FAIR" INDICATES FEW OR NO CLOUDS BELOW 12,000 FEET WITH NO
SIGNIFICANT WEATHER AND/OR OBSTRUCTIONS TO VISIBILITY.

NOT ALL STATIONS ARE QUALITY CONTROLLED BY THE NATIONAL
WEATHER SERVICE. USE DATA WITH CAUTION...ESPECIALLY
DEWPOINT OBSERVATIONS.

SCZ001>056-GAZ040-063>065-077-062000-
...UPSTATE SOUTH CAROLINA...

CITY           SKY/WX    TMP DP  RH WIND       PRES   REMARKS
ANDERSON       CLOUDY    47  45  93 NE8       29.76F
LIBERTY        CLOUDY    46  44  93 E6        29.75F
GREENVILLE     LGT RAIN  47  43  86 NE9G17    29.76F
GREER          LGT RAIN  45  43  93 N9        29.76S FOG
LAURENS          N/A     45  45 100 N6        29.76R FOG


...CENTRAL SOUTH CAROLINA...

CITY           SKY/WX    TMP DP  RH WIND       PRES   REMARKS
COLUMBIA APT   LGT RAIN  52  48  87 VRB6      29.70S FOG
COLUMBIA OWENS CLOUDY    52  49  89 NW5       29.71S FOG
ORANGEBURG       N/A     57  57 100 N3        29.68S FOG
AIKEN          DRIZZLE   52  52 100 N5        29.73S
LANCASTER      CLOUDY    46  46 100 N8        29.71F FOG
WINNSBORO      DRIZZLE   48  46  93 N9        29.72S


...EASTERN AND COASTAL SOUTH CAROLINA...

CITY           SKY/WX    TMP DP  RH WIND       PRES   REMARKS
N MYRTLE BCH   CLOUDY    64  63  96 SE5       29.64F
MARION         CLOUDY    54  52  94 CALM      29.66F
FLORENCE       FOG       52  52 100 N5        29.67F VSB 1
CHARLESTON APT NOT AVBL
BEAUFORT       PTSUNNY   75  70  84 SW12      29.67F
HILTON HEAD    CLOUDY    72  70  94 S14       29.70F FOG


...EASTERN GEORGIA...

CITY           SKY/WX    TMP DP  RH WIND       PRES   REMARKS
AUGUSTA BUSH F CLOUDY    63  59  87 NW8       29.70S FOG
AUGUSTA DANIEL CLOUDY    57  54  89 NW9       29.72R FOG
SAVANNAH       FAIR      79  68  69 SW12      29.68F


...SOUTHERN NORTH CAROLINA...

CITY           SKY/WX    TMP DP  RH WIND       PRES   REMARKS
CHARLOTTE      CLOUDY    46  43  89 N12       29.74F
MONROE         CLOUDY    47  44  90 N14       29.70F
WADESBORO      LGT RAIN  50  48  93 NW7       29.72R
ROCKINGHAM     DRIZZLE   49  49 100 NE3       29.68F
RUTHERFORDTON  RAIN      43  43 100 N7        29.79F
ASHEVILLE      PTSUNNY   45  41  87 SE7       29.74F

$$



USA.gov is the U.S. government's official web portal to all federal, state and local government web resources and services.